Milton, FL

9:37 PM CDT on April 24, 2017 (GMT -0500)
Whiting Field Naval Air Station (South)

Weather History for KNDZ - July, 2013

Change the Weather History Date:

Tuesday, July 2, 2013

  Actual Average (KNSE) Record (KNSE)
Temperature  
Mean Temperature 78 °F -  
Max Temperature 89 °F 86 °F 96 °F (2016)
Min Temperature 68 °F 69 °F 68 °F (2008)
Cooling Degree Days 13    
Growing Degree Days 28 (Base 50)    
Moisture  
Dew Point 68 °F    
Average Humidity 72    
Maximum Humidity 90    
Minimum Humidity 53    
Precipitation  
Precipitation 0.00 in - - ()
Sea Level Pressure  
Sea Level Pressure 29.92 in    
Wind  
Wind Speed 4 mph (South)    
Max Wind Speed 13 mph    
Max Gust Speed 16 mph    
Visibility 10 miles    
Events      
Averages and records for this station are not official NWS values.
T = Trace of Precipitation, MM = Missing Value Source: NWS Daily Summary

Daily Weather History Graph

Daily Weather History Graph

Search for Another Location

Airport or City:

Trip Planner

Search our weather history database for the weather conditions in past years. The results will help you decide how hot, cold, wet, or windy it might be!

Date:

Astronomy

Jul. 02, 2013 Rise Set
Actual Time 5:49 AM CDT 7:54 PM CDT
Civil Twilight 5:21 AM CDT 8:22 PM CDT
Nautical Twilight 4:48 AM CDT 8:55 PM CDT
Astronomical Twilight 4:12 AM CDT 9:31 PM CDT
Moon 1:40 AM CDT (7/2) 3:17 PM CDT (7/2)
Length of Visible Light 15h 00m
Length of Day
14h 05m
Waning Crescent, 26% of the Moon is Illuminated
Jul 2
Waning Crescent
Jul 8
New
Jul 15
First Quarter
Jul 22
Full
Jul 29
Last Quarter

Hourly Weather History & Observations

Time (CDT) Temp. Heat Index Dew Point Humidity Pressure Visibility Wind Dir Wind Speed Gust Speed Precip Events Conditions
12:56 AM 71.1 °F - 68.0 °F 90% 29.85 in 10.0 mi WNW 3.5 mph - N/A   Clear
1:56 AM 71.1 °F - 66.9 °F 87% 29.85 in 10.0 mi Calm Calm - N/A   Clear
2:56 AM 71.1 °F - 66.9 °F 87% 29.85 in 10.0 mi ENE 3.5 mph - N/A   Clear
3:56 AM 69.1 °F - 66.0 °F 90% 29.86 in 10.0 mi Calm Calm - N/A   Clear
4:56 AM 68.0 °F - 64.9 °F 90% 29.87 in 10.0 mi NW 3.5 mph - N/A   Clear
5:56 AM 69.1 °F - 66.0 °F 90% 29.89 in 10.0 mi Calm Calm - N/A   Mostly Cloudy
6:56 AM 71.1 °F - 68.0 °F 90% 29.91 in 10.0 mi Calm Calm - N/A   Clear
7:56 AM 77.0 °F - 69.1 °F 76% 29.92 in 10.0 mi NE 3.5 mph - N/A   Clear
8:56 AM 82.9 °F 87.0 °F 70.0 °F 65% 29.93 in 10.0 mi Calm Calm - N/A   Clear
9:56 AM 84.9 °F 89.4 °F 70.0 °F 61% 29.94 in 10.0 mi WSW 3.5 mph - N/A   Clear
10:56 AM 84.9 °F 88.2 °F 68.0 °F 57% 29.94 in 10.0 mi South 4.6 mph - N/A   Mostly Cloudy
11:56 AM 87.1 °F 91.3 °F 69.1 °F 55% 29.93 in 10.0 mi Variable 3.5 mph - N/A   Partly Cloudy
12:56 PM 87.1 °F 91.3 °F 69.1 °F 55% 29.93 in 10.0 mi South 8.1 mph - N/A   Scattered Clouds
1:56 PM 88.0 °F 92.9 °F 70.0 °F 55% 29.92 in 10.0 mi SSE 9.2 mph 16.1 mph N/A   Clear
2:56 PM 88.0 °F 92.1 °F 69.1 °F 53% 29.91 in 10.0 mi South 12.7 mph 16.1 mph N/A   Partly Cloudy
3:56 PM 87.1 °F 92.0 °F 70.0 °F 57% 29.91 in 10.0 mi South 9.2 mph - N/A   Clear
4:56 PM 87.1 °F 91.3 °F 69.1 °F 55% 29.91 in 10.0 mi South 10.4 mph - N/A   Clear
5:56 PM 82.9 °F 85.8 °F 68.0 °F 60% 29.92 in 10.0 mi South 8.1 mph - N/A   Clear
6:56 PM 82.9 °F 86.5 °F 69.1 °F 63% 29.93 in 10.0 mi South 4.6 mph - N/A   Clear
7:56 PM 80.1 °F 82.7 °F 68.0 °F 67% 29.94 in 10.0 mi SSE 5.8 mph - N/A   Clear
8:56 PM 78.1 °F - 69.1 °F 74% 29.95 in 10.0 mi South 3.5 mph - N/A   Scattered Clouds
9:56 PM 75.9 °F - 69.1 °F 79% 29.96 in 10.0 mi SE 4.6 mph - N/A   Partly Cloudy
10:56 PM 73.9 °F - 68.0 °F 82% 29.97 in 10.0 mi Calm Calm - N/A   Clear
11:56 PM 72.0 °F - 66.9 °F 84% 29.98 in 10.0 mi Calm Calm - N/A   Clear